Location: Unspecified
(0.0000°N, 0.0000°E)
Time: 13:42:40
(UTC+02:00)

USA 116 - Visible Passes

Search period start: 24 April 2014 00:00
Search period end: 04 May 2014 00:00
Orbit: 405 x 834 km, 97.9° (Epoch: 18 November)

Date Brightness Start Highest point End Pass type
(mag) Time Alt. Az. Time Alt. Az. Time Alt. Az.
24 Apr 5.5 05:42:05 10° SSE 05:47:04 44° ENE 05:52:10 10° N visible
24 Apr 6.1 07:20:27 10° SW 07:22:42 13° WSW 07:25:00 10° WNW visible
25 Apr 4.8 05:56:42 10° SSE 06:01:57 67° ENE 06:07:18 10° N visible
26 Apr 4.4 06:11:31 10° S 06:16:50 82° WSW 06:22:14 10° NNW visible
27 Apr 7.5 04:55:30 10° E 04:56:10 10° ENE 04:56:51 10° ENE visible
27 Apr 4.5 06:26:32 10° S 06:31:43 54° WSW 06:36:58 10° NNW visible
28 Apr 7.1 05:07:46 10° ESE 05:11:02 16° ENE 05:14:16 10° NE visible
28 Apr 5.0 06:41:45 10° SSW 06:46:36 36° WSW 06:51:29 10° NW visible
29 Apr 6.5 05:21:35 10° SE 05:25:54 25° ENE 05:30:10 10° NNE visible
29 Apr 5.5 06:57:15 10° SSW 07:01:29 24° WSW 07:05:43 10° NW visible
30 Apr 5.9 05:35:51 10° SE 05:40:46 37° ENE 05:45:38 10° NNE visible
30 Apr 5.9 07:13:11 10° SW 07:16:20 16° WSW 07:19:30 10° WNW visible
01 May 5.1 05:50:22 10° SSE 05:55:39 56° ENE 06:00:50 10° N visible
02 May 4.5 06:05:07 10° SSE 06:10:32 84° ENE 06:15:49 10° N visible
03 May 4.4 06:20:03 10° S 06:25:25 65° WSW 06:30:37 10° NNW visible
